• Em Portugal
  • Lista de países
  • Para 7 dias
  • Temperatura da água
  • Mapas de satélite
  • Mapa do tempo
  • Widgets de tempo
  • user-avatar
    Iniciar Sessão

    Previsão horária em Pekanino

    Hoje, 17 Outubro, Quarta-feira

    Tempo Temperatura Precipitação Vento Pressão Humidade
    00:00 +14°C° 0 mm 2 m/s 761 mmHg 63%
    01:00 +14°C° 0 mm 2 m/s 761 mmHg 64%
    02:00 +13°C° 0 mm 2 m/s 761 mmHg 65%
    03:00 +13°C° 0 mm 2 m/s 761 mmHg 67%
    04:00 +13°C° 0 mm 2 m/s 761 mmHg 68%
    05:00 +13°C° 0 mm 2 m/s 761 mmHg 70%
    06:00 +13°C° 0 mm 2 m/s 761 mmHg 72%
    07:00 +13°C° 0 mm 2 m/s 761 mmHg 71%
    08:00 +14°C° 0 mm 2 m/s 762 mmHg 66%
    09:00 +16°C° 0 mm 2 m/s 762 mmHg 61%
    10:00 +18°C° 0 mm 2 m/s 762 mmHg 56%
    11:00 +19°C° 0 mm 2 m/s 762 mmHg 53%
    12:00 +20°C° 0 mm 2 m/s 762 mmHg 49%
    13:00 +23°C° 0 mm 1 m/s 761 mmHg 45%
    14:00 +22°C° 0 mm 1 m/s 761 mmHg 48%
    15:00 +21°C° 0 mm 1 m/s 761 mmHg 51%
    16:00 +21°C° 0 mm 1 m/s 761 mmHg 54%
    17:00 +19°C° 0 mm 1 m/s 761 mmHg 58%
    18:00 +18°C° 0 mm 1 m/s 761 mmHg 61%
    19:00 +16°C° 0 mm 1 m/s 761 mmHg 65%
    20:00 +15°C° 0 mm 1 m/s 761 mmHg 66%
    21:00 +15°C° 0 mm 2 m/s 761 mmHg 67%
    22:00 +14°C° 0 mm 2 m/s 761 mmHg 68%
    23:00 +14°C° 0 mm 2 m/s 761 mmHg 69%

    Amanhã, 18 Outubro, Quinta-feira

    Tempo Temperatura Precipitação Vento Pressão Humidade
    00:00 +14°C° 0 mm 2 m/s 761 mmHg 70%
    01:00 +13°C° 0 mm 2 m/s 761 mmHg 71%
    02:00 +13°C° 0 mm 2 m/s 761 mmHg 72%
    03:00 +13°C° 0 mm 2 m/s 761 mmHg 73%
    04:00 +13°C° 0 mm 2 m/s 761 mmHg 74%
    05:00 +12°C° 0 mm 2 m/s 760 mmHg 74%
    06:00 +12°C° 0 mm 2 m/s 760 mmHg 75%
    07:00 +12°C° 0 mm 2 m/s 760 mmHg 76%
    08:00 +14°C° 0 mm 2 m/s 760 mmHg 70%
    09:00 +16°C° 0 mm 2 m/s 761 mmHg 64%
    10:00 +18°C° 0 mm 2 m/s 761 mmHg 57%
    11:00 +18°C° 0 mm 2 m/s 761 mmHg 56%
    12:00 +19°C° 0 mm 2 m/s 761 mmHg 55%
    13:00 +20°C° 0 mm 3 m/s 761 mmHg 54%
    14:00 +19°C° 0 mm 3 m/s 761 mmHg 59%
    15:00 +18°C° 0 mm 3 m/s 761 mmHg 64%
    16:00 +17°C° 0 mm 3 m/s 761 mmHg 68%
    17:00 +16°C° 0 mm 3 m/s 761 mmHg 75%
    18:00 +14°C° 0 mm 3 m/s 761 mmHg 82%
    19:00 +12°C° 0 mm 3 m/s 762 mmHg 89%
    20:00 +12°C° 0 mm 3 m/s 762 mmHg 90%
    21:00 +12°C° 0 mm 3 m/s 762 mmHg 90%
    22:00 +11°C° 0 mm 3 m/s 763 mmHg 91%
    23:00 +11°C° 0 mm 3 m/s 763 mmHg 91%

    Depois de amanhã, 19 Outubro, Sexta-feira

    Tempo Temperatura Precipitação Vento Pressão Humidade
    00:00 +11°C° 0 mm 3 m/s 763 mmHg 90%
    01:00 +11°C° 0 mm 3 m/s 763 mmHg 90%
    02:00 +10°C° 0 mm 2 m/s 763 mmHg 90%
    03:00 +10°C° 0 mm 2 m/s 763 mmHg 90%
    04:00 +9°C° 0 mm 2 m/s 763 mmHg 90%
    05:00 +9°C° 0 mm 2 m/s 764 mmHg 90%
    06:00 +9°C° 0 mm 2 m/s 764 mmHg 89%
    07:00 +10°C° 0 mm 1 m/s 764 mmHg 89%
    08:00 +11°C° 0 mm 1 m/s 764 mmHg 79%
    09:00 +13°C° 0 mm 1 m/s 765 mmHg 69%
    10:00 +15°C° 0 mm 2 m/s 765 mmHg 59%
    11:00 +15°C° 0 mm 1 m/s 765 mmHg 55%
    12:00 +16°C° 0 mm 1 m/s 765 mmHg 51%
    13:00 +16°C° 0 mm 1 m/s 765 mmHg 48%
    14:00 +16°C° 0 mm 2 m/s 765 mmHg 51%
    15:00 +15°C° 0 mm 2 m/s 765 mmHg 55%
    16:00 +14°C° 0 mm 2 m/s 765 mmHg 59%
    17:00 +13°C° 0 mm 2 m/s 765 mmHg 64%
    18:00 +12°C° 0 mm 2 m/s 765 mmHg 69%
    19:00 +10°C° 0 mm 1 m/s 766 mmHg 75%
    20:00 +10°C° 0 mm 1 m/s 766 mmHg 76%
    21:00 +9°C° 0 mm 2 m/s 766 mmHg 78%
    22:00 +8°C° 0 mm 2 m/s 766 mmHg 80%
    23:00 +8°C° 0 mm 2 m/s 766 mmHg 82%

    20 Outubro, Sábado

    Tempo Temperatura Precipitação Vento Pressão Humidade
    00:00 +8°C° 0 mm 2 m/s 766 mmHg 84%
    01:00 +8°C° 0 mm 2 m/s 766 mmHg 86%
    02:00 +7°C° 0 mm 2 m/s 766 mmHg 87%
    03:00 +7°C° 0 mm 3 m/s 766 mmHg 88%
    04:00 +7°C° 0 mm 3 m/s 767 mmHg 90%
    05:00 +8°C° 0 mm 3 m/s 767 mmHg 90%
    06:00 +8°C° 0 mm 3 m/s 767 mmHg 90%
    07:00 +8°C° 0 mm 3 m/s 767 mmHg 90%
    08:00 +8°C° 0 mm 4 m/s 767 mmHg 83%
    09:00 +10°C° 0 mm 4 m/s 768 mmHg 76%
    10:00 +12°C° 0 mm 5 m/s 768 mmHg 70%
    11:00 +12°C° 0 mm 5 m/s 768 mmHg 68%
    12:00 +12°C° 0 mm 5 m/s 768 mmHg 65%
    13:00 +11°C° 0 mm 6 m/s 768 mmHg 63%
    14:00 +11°C° 0 mm 6 m/s 768 mmHg 67%
    15:00 +10°C° 0 mm 6 m/s 768 mmHg 70%
    16:00 +10°C° 0 mm 6 m/s 767 mmHg 73%
    17:00 +10°C° 0.1 mm 6 m/s 767 mmHg 76%
    18:00 +10°C° 0.1 mm 6 m/s 768 mmHg 78%
    19:00 +10°C° 0.1 mm 6 m/s 768 mmHg 80%
    20:00 +10°C° 0 mm 6 m/s 768 mmHg 83%
    21:00 +9°C° 0 mm 5 m/s 768 mmHg 86%
    22:00 +10°C° 0 mm 4 m/s 768 mmHg 88%
    23:00 +8°C° 0 mm 4 m/s 768 mmHg 89%

    21 Outubro, Domingo

    Tempo Temperatura Precipitação Vento Pressão Humidade
    00:00 +8°C° 0 mm 4 m/s 768 mmHg 90%
    01:00 +8°C° 0 mm 3 m/s 768 mmHg 91%
    02:00 +8°C° 0 mm 3 m/s 768 mmHg 91%
    03:00 +8°C° 0 mm 2 m/s 768 mmHg 91%
    04:00 +8°C° 0 mm 2 m/s 768 mmHg 91%
    05:00 +8°C° 0 mm 2 m/s 768 mmHg 92%
    06:00 +8°C° 0 mm 2 m/s 768 mmHg 92%
    07:00 +7°C° 0 mm 2 m/s 768 mmHg 93%
    08:00 +9°C° 0 mm 2 m/s 768 mmHg 87%
    09:00 +11°C° 0 mm 3 m/s 768 mmHg 81%
    10:00 +12°C° 0 mm 3 m/s 768 mmHg 76%
    11:00 +12°C° 0 mm 3 m/s 768 mmHg 75%
    12:00 +13°C° 0 mm 4 m/s 768 mmHg 74%
    13:00 +13°C° 0 mm 4 m/s 767 mmHg 73%
    14:00 +13°C° 0 mm 4 m/s 767 mmHg 76%
    15:00 +12°C° 0 mm 4 m/s 767 mmHg 79%
    16:00 +12°C° 0 mm 4 m/s 766 mmHg 82%
    17:00 +11°C° 0 mm 4 m/s 766 mmHg 85%
    18:00 +10°C° 0 mm 4 m/s 766 mmHg 88%
    19:00 +8°C° 0 mm 4 m/s 766 mmHg 92%
    20:00 +8°C° 0 mm 5 m/s 766 mmHg 91%
    21:00 +8°C° 0 mm 5 m/s 765 mmHg 90%
    22:00 +8°C° 0 mm 5 m/s 765 mmHg 90%
    23:00 +9°C° 0 mm 5 m/s 765 mmHg 87%

    22 Outubro, Segunda-feira

    Tempo Temperatura Precipitação Vento Pressão Humidade
    00:00 +9°C° 0 mm 5 m/s 765 mmHg 84%
    01:00 +9°C° 0 mm 6 m/s 764 mmHg 81%
    02:00 +9°C° 0 mm 6 m/s 764 mmHg 78%
    03:00 +9°C° 0 mm 6 m/s 764 mmHg 75%
    04:00 +9°C° 0 mm 6 m/s 763 mmHg 72%
    05:00 +9°C° 0.1 mm 6 m/s 763 mmHg 71%
    06:00 +9°C° 0.1 mm 6 m/s 763 mmHg 69%
    07:00 +9°C° 0.1 mm 6 m/s 763 mmHg 67%
    08:00 +10°C° 0.3 mm 6 m/s 764 mmHg 71%
    09:00 +10°C° 0.3 mm 6 m/s 764 mmHg 75%
    10:00 +10°C° 0.3 mm 6 m/s 764 mmHg 79%
    11:00 +11°C° 0 mm 6 m/s 764 mmHg 75%
    12:00 +11°C° 0 mm 7 m/s 764 mmHg 70%
    13:00 +12°C° 0 mm 7 m/s 764 mmHg 65%
    14:00 +11°C° 0 mm 7 m/s 764 mmHg 65%
    15:00 +10°C° 0 mm 7 m/s 765 mmHg 64%
    16:00 +10°C° 0 mm 7 m/s 765 mmHg 64%
    17:00 +9°C° 0 mm 7 m/s 765 mmHg 66%
    18:00 +9°C° 0 mm 7 m/s 765 mmHg 67%
    19:00 +8°C° 0 mm 7 m/s 765 mmHg 69%
    20:00 +8°C° 0 mm 7 m/s 765 mmHg 69%
    21:00 +8°C° 0 mm 6 m/s 764 mmHg 68%
    22:00 +7°C° 0 mm 6 m/s 764 mmHg 67%
    23:00 +7°C° 0.1 mm 6 m/s 764 mmHg 70%
    Mostrar mais